TimeCST,TemperatureF,Dew PointF,Humidity,Sea Level PressureIn,VisibilityMPH,Wind Direction,Wind SpeedMPH,Gust SpeedMPH,PrecipitationIn,Events,Conditions,WindDirDegrees,DateUTC
12:14 AM,32.4,30.6,93,30.05,10.0,SE,10.4,16.1,N/A,,Overcast,140,2012-12-01 06:14:00
12:35 AM,32.5,30.9,94,30.05,10.0,SSE,11.5,-,N/A,,Overcast,150,2012-12-01 06:35:00
12:54 AM,32.9,31.1,93,30.05,10.0,SSE,9.2,18.4,N/A,,Overcast,160,2012-12-01 06:54:00
1:14 AM,32.9,31.5,94,30.03,7.0,SE,10.4,16.1,N/A,,Overcast,140,2012-12-01 07:14:00
1:35 AM,32.9,31.6,95,30.02,7.0,SE,8.1,-,N/A,,Overcast,140,2012-12-01 07:35:00
1:54 AM,32.9,31.8,96,30.01,7.0,SE,10.4,-,N/A,,Overcast,140,2012-12-01 07:54:00
2:14 AM,33.1,32.0,96,30.00,5.0,SE,10.4,16.1,N/A,,Overcast,140,2012-12-01 08:14:00
2:35 AM,33.3,32.0,95,30.00,4.0,SSE,6.9,-,N/A,,Overcast,150,2012-12-01 08:35:00
2:54 AM,33.4,32.2,95,30.00,4.0,SSE,8.1,-,N/A,,Overcast,150,2012-12-01 08:54:00
3:35 AM,33.6,32.4,95,29.98,3.0,SSE,9.2,-,N/A,,Overcast,150,2012-12-01 09:35:00
3:54 AM,33.8,32.5,95,29.97,3.0,SE,9.2,16.1,N/A,,Overcast,140,2012-12-01 09:54:00
4:15 AM,33.8,32.7,96,29.95,3.0,SE,8.1,-,N/A,,Overcast,140,2012-12-01 10:15:00
4:34 AM,33.8,32.9,96,29.93,3.0,SE,11.5,17.3,N/A,,Overcast,140,2012-12-01 10:34:00
4:55 AM,34.0,32.9,96,29.92,4.0,SSE,11.5,16.1,N/A,,Overcast,150,2012-12-01 10:55:00
5:14 AM,34.0,32.9,96,29.90,4.0,SSE,12.7,-,N/A,,Overcast,150,2012-12-01 11:14:00
5:34 AM,34.3,33.3,96,29.89,5.0,SSE,13.8,18.4,N/A,,Overcast,150,2012-12-01 11:34:00
5:55 AM,34.7,33.4,95,29.89,7.0,SSE,13.8,20.7,N/A,,Overcast,150,2012-12-01 11:55:00
6:14 AM,34.7,33.4,95,29.88,7.0,SSE,11.5,17.3,N/A,,Overcast,150,2012-12-01 12:14:00
6:35 AM,34.7,33.4,95,29.88,5.0,SE,12.7,-,N/A,,Overcast,140,2012-12-01 12:35:00
6:54 AM,34.7,33.4,95,29.87,5.0,SSE,10.4,18.4,N/A,,Overcast,150,2012-12-01 12:54:00
7:14 AM,34.7,33.4,95,29.86,5.0,SE,12.7,19.6,N/A,,Overcast,140,2012-12-01 13:14:00
7:35 AM,34.7,33.4,95,29.85,5.0,SSE,12.7,19.6,N/A,,Overcast,150,2012-12-01 13:35:00
7:54 AM,35.1,33.8,95,29.85,5.0,SE,10.4,17.3,N/A,,Overcast,140,2012-12-01 13:54:00
8:15 AM,35.2,33.8,94,29.85,5.0,SSE,11.5,-,N/A,,Overcast,150,2012-12-01 14:15:00
8:35 AM,35.6,34.0,94,29.85,5.0,SE,8.1,-,N/A,,Overcast,140,2012-12-01 14:35:00
8:54 AM,35.8,34.2,94,29.85,5.0,SE,9.2,-,N/A,,Overcast,140,2012-12-01 14:54:00
9:15 AM,36.0,34.2,93,29.85,5.0,SE,9.2,-,N/A,,Overcast,140,2012-12-01 15:15:00
9:34 AM,36.3,34.3,93,29.83,5.0,SE,10.4,-,N/A,,Overcast,140,2012-12-01 15:34:00
9:54 AM,36.5,34.7,93,29.82,5.0,SE,11.5,-,N/A,,Overcast,140,2012-12-01 15:54:00
10:15 AM,36.5,34.7,93,29.82,4.0,SSE,10.4,-,N/A,,Overcast,150,2012-12-01 16:15:00
10:34 AM,36.7,35.1,94,29.81,3.0,SSE,13.8,-,N/A,,Overcast,150,2012-12-01 16:34:00
10:55 AM,37.0,35.6,95,29.78,4.0,SSE,16.1,21.9,N/A,,Overcast,150,2012-12-01 16:55:00
11:14 AM,37.4,36.0,95,29.77,5.0,SSE,13.8,19.6,N/A,,Overcast,150,2012-12-01 17:14:00
11:35 AM,37.9,36.1,93,29.75,5.0,SSE,11.5,18.4,N/A,,Overcast,150,2012-12-01 17:35:00
11:54 AM,38.5,36.5,93,29.74,7.0,SSE,12.7,17.3,N/A,,Overcast,150,2012-12-01 17:54:00
12:15 PM,39.2,36.7,91,29.75,7.0,South,8.1,-,N/A,,Overcast,170,2012-12-01 18:15:00
12:35 PM,39.4,36.7,90,29.74,7.0,South,10.4,-,N/A,,Overcast,190,2012-12-01 18:35:00
12:54 PM,39.2,36.5,90,29.74,7.0,South,6.9,-,N/A,,Overcast,170,2012-12-01 18:54:00
1:15 PM,39.6,37.0,91,29.73,7.0,SSE,5.8,-,N/A,,Overcast,160,2012-12-01 19:15:00
1:35 PM,39.7,37.4,91,29.73,7.0,SSE,5.8,-,N/A,,Overcast,160,2012-12-01 19:35:00
1:54 PM,39.9,37.6,91,29.72,5.0,SSE,6.9,-,N/A,,Overcast,160,2012-12-01 19:54:00
2:15 PM,40.1,37.8,91,29.72,5.0,South,8.1,-,N/A,,Overcast,170,2012-12-01 20:15:00
2:34 PM,40.3,38.1,92,29.72,7.0,SSE,8.1,-,N/A,,Overcast,160,2012-12-01 20:34:00
2:54 PM,40.3,38.3,93,29.71,5.0,South,6.9,-,N/A,,Overcast,170,2012-12-01 20:54:00
3:15 PM,40.3,38.3,93,29.72,7.0,South,5.8,-,N/A,,Overcast,170,2012-12-01 21:15:00
3:34 PM,40.5,38.3,92,29.72,7.0,South,5.8,-,N/A,,Overcast,180,2012-12-01 21:34:00
3:54 PM,40.3,38.3,93,29.72,7.0,South,4.6,-,N/A,,Overcast,170,2012-12-01 21:54:00
4:15 PM,40.3,38.3,93,29.73,7.0,South,4.6,-,N/A,,Overcast,170,2012-12-01 22:15:00
4:34 PM,40.1,38.3,93,29.74,7.0,Calm,Calm,-,N/A,,Overcast,0,2012-12-01 22:34:00
4:54 PM,39.9,37.9,93,29.74,7.0,Calm,Calm,-,N/A,,Overcast,0,2012-12-01 22:54:00
5:15 PM,39.7,37.8,93,29.76,7.0,Calm,Calm,-,N/A,,Overcast,0,2012-12-01 23:15:00
5:54 PM,39.2,37.4,93,29.76,7.0,Calm,Calm,-,N/A,,Overcast,0,2012-12-01 23:54:00
6:15 PM,39.2,37.4,93,29.77,7.0,Calm,Calm,-,N/A,,Overcast,0,2012-12-02 00:15:00
6:34 PM,38.8,37.2,94,29.77,5.0,Calm,Calm,-,N/A,,Overcast,0,2012-12-02 00:34:00
6:55 PM,38.5,36.9,94,29.77,5.0,Calm,Calm,-,N/A,,Overcast,0,2012-12-02 00:55:00
7:15 PM,39.0,37.4,94,29.78,7.0,Calm,Calm,-,N/A,,Overcast,0,2012-12-02 01:15:00
7:34 PM,38.8,37.4,95,29.78,7.0,Calm,Calm,-,N/A,,Overcast,0,2012-12-02 01:34:00
7:55 PM,39.2,37.6,94,29.78,7.0,Calm,Calm,-,N/A,,Overcast,0,2012-12-02 01:55:00
8:15 PM,37.8,36.1,94,29.77,5.0,Calm,Calm,-,N/A,,Scattered Clouds,0,2012-12-02 02:15:00
8:34 PM,36.7,35.2,95,29.78,4.0,Calm,Calm,-,N/A,,Clear,0,2012-12-02 02:34:00
8:55 PM,36.5,35.2,95,29.80,3.0,Calm,Calm,-,N/A,,Clear,0,2012-12-02 02:55:00
9:15 PM,36.1,34.9,95,29.79,1.5,Calm,Calm,-,N/A,,Scattered Clouds,0,2012-12-02 03:15:00
9:34 PM,35.1,33.8,95,29.80,1.0,Calm,Calm,-,N/A,,Mostly Cloudy,0,2012-12-02 03:34:00
9:55 PM,35.2,34.0,95,29.82,1.2,Calm,Calm,-,N/A,,Scattered Clouds,0,2012-12-02 03:55:00
10:15 PM,35.1,34.0,96,29.83,4.0,NW,4.6,-,N/A,,Clear,320,2012-12-02 04:15:00
10:34 PM,35.2,34.0,95,29.83,5.0,WNW,3.5,-,N/A,,Scattered Clouds,290,2012-12-02 04:34:00
10:55 PM,35.8,34.7,96,29.83,7.0,Calm,Calm,-,N/A,,Scattered Clouds,0,2012-12-02 04:55:00
11:14 PM,34.7,33.4,95,29.83,7.0,Calm,Calm,-,N/A,,Clear,0,2012-12-02 05:14:00
11:35 PM,34.2,33.1,96,29.83,5.0,Calm,Calm,-,N/A,,Mostly Cloudy,0,2012-12-02 05:35:00
11:55 PM,34.3,33.3,96,29.84,5.0,Calm,Calm,-,N/A,,Overcast,0,2012-12-02 05:55:00